Home   Weather   50°40'N, 3°14'E   Past weeks
Flag for France

Past Weather in 50°40'N, 3°14'E, France — Yesterday and Last 2 Weeks

Now
55 °F

Clear.


Feels Like: 55 °F
Forecast: 78 / 56 °F
Wind: 2 mph from Southeast

Location: Lille Airport

Current Time: Jun 17, 2019 at 5:00:47 am

Latest Report: Jun 17, 2019 at 4:30 am


Visibility: N/A

Pressure: 30.12 "Hg

Humidity: 94%

Dew Point: 54 °F

Location of 50°40'N, 3°14'ELocation

Past Weather in 50°40'N, 3°14'E — Graph

°F

50°40'N, 3°14'E Temperature Yesterday

Maximum temperature yesterday: 72 °F (at 2:30 pm)
Minimum temperature yesterday: 55 °F (at 3:30 am)
Average temperature yesterday: 62 °F

High & Low Weather Summary for the Past Weeks

 TemperatureHumidityPressure
High90 °F (Jun 2, 4:30 pm)100% (Jun 5, 1:30 am)30.21 "Hg (Jun 5, 1:30 am)
Low46 °F (Jun 11, 4:30 am)29% (Jun 2, 5:30 pm)29.53 "Hg (Jun 4, 6:00 pm)
Average60 °F75%29.89 "Hg
* Reported Jun 2 4:00 am — Jun 17 4:00 am, 50°40'N, 3°14'E. Weather by CustomWeather, © 2019

Note: Actual official high and low records may vary slightly from our data, if they occured in-between our weather recording intervals... More about our weather records

Advertising

50°40'N, 3°14'E Weather History for the Previous 24 Hours

Scroll right to see more
 ConditionsComfort  
Time TempWeatherWind HumidityBarometerVisibility
4:00 am
Mon, Jun 17
55 °FClear.2 mph94%30.12 "Hg10 mi
3:30 am55 °FPassing clouds.1 mph94%30.12 "HgN/A
3:00 am55 °FClear.1 mph94%30.12 "Hg10 mi
2:30 am55 °FClear.2 mph94%30.12 "Hg10 mi
2:00 am55 °FClear.2 mph100%30.12 "Hg10 mi
1:30 am57 °FClear.1 mph94%30.12 "HgN/A
1:00 am57 °FClear.1 mph94%30.12 "HgN/A
12:30 am57 °FClear.No wind94%30.12 "Hg10 mi
12:00 am59 °FClear.No wind88%30.15 "Hg10 mi
11:30 pm
Sun, Jun 16
59 °FClear.No wind88%30.12 "Hg10 mi
11:00 pm61 °FClear.1 mph83%30.12 "Hg10 mi
10:30 pm61 °FClear.1 mph88%30.12 "Hg10 mi
10:00 pm64 °FSunny.3 mph78%30.12 "Hg10 mi
9:30 pm64 °FSunny.3 mph78%30.12 "Hg10 mi
9:00 pm66 °FSunny.5 mph73%30.12 "Hg10 mi
8:30 pm66 °FSunny.5 mph68%30.12 "Hg10 mi
8:00 pm68 °FScattered clouds.6 mph64%30.12 "HgN/A
7:30 pm68 °FPassing clouds.7 mph60%30.12 "HgN/A
7:00 pm70 °FMild.10 mph57%30.12 "HgN/A
6:30 pm68 °FOvercast.12 mph69%30.12 "HgN/A
6:00 pm68 °FMild.9 mph64%30.12 "HgN/A
5:30 pm68 °FPartly sunny.9 mph69%30.12 "HgN/A
5:00 pm70 °FMild.6 mph64%30.12 "HgN/A
4:30 pm66 °FBroken clouds.9 mph83%30.12 "HgN/A
4:00 pm66 °FBroken clouds.10 mph78%30.12 "HgN/A
3:30 pm66 °FRain. Partly sunny.7 mph68%30.12 "HgN/A
3:00 pm70 °FBroken clouds.12 mph53%30.12 "HgN/A
2:30 pm72 °FBroken clouds.12 mph57%30.09 "HgN/A
2:00 pm70 °FMostly cloudy.13 mph57%30.12 "HgN/A
1:30 pm70 °FBroken clouds.12 mph53%30.12 "HgN/A
1:00 pm68 °FPartly sunny.12 mph60%30.12 "HgN/A
12:30 pm68 °FBroken clouds.10 mph60%30.12 "HgN/A
12:00 pm66 °FPartly sunny.10 mph60%30.12 "HgN/A
11:30 am66 °FBroken clouds.12 mph60%30.12 "HgN/A
11:00 am64 °FPartly sunny.12 mph68%30.12 "HgN/A
10:30 am61 °FPartly sunny.10 mph83%30.12 "HgN/A
10:00 am57 °FPartly sunny.5 mph94%30.12 "HgN/A
9:30 am59 °FMostly cloudy.8 mph82%30.12 "HgN/A
9:00 am59 °FPartly sunny.9 mph82%30.09 "HgN/A
8:30 am59 °FMostly cloudy.9 mph82%30.09 "HgN/A
8:00 am59 °FBroken clouds.9 mph82%30.09 "HgN/A
7:30 am57 °FOvercast.10 mph88%30.07 "HgN/A
7:00 am57 °FPartly sunny.10 mph88%30.07 "HgN/A
6:30 am55 °FPartly sunny.7 mph88%30.07 "HgN/A
6:00 am55 °FPartly sunny.8 mph88%30.07 "HgN/A
5:30 am55 °FPassing clouds.7 mph88%30.07 "HgN/A
5:00 am55 °FPassing clouds.7 mph88%30.07 "HgN/A
Weather by CustomWeather, © 2019

See weather overview